Location: Boiro
(42.6475°N, 8.8834°W)
Time: 21:05:23
(UTC+01:00)

Vanguard 1 - Pass Details

Date: 30 November 2021
Orbit: 652 x 3830 km, 34.2° (Epoch: 19 January)

Event Time Altitude Azimuth Distance (km) Brightness Sun altitude
Rises 07:14:50 0° 277° (W) 7,757 - -16.2°
Reaches altitude 10° 07:20:48 10° 273° (W) 6,444 - -15.1°
Exits shadow 07:23:12 15° 271° (W) 5,900 13.4 -14.7°
Maximum altitude 07:38:18 47° 209° (SSW) 2,950 12.4 -12.0°
Drops below altitude 10° 07:48:25 10° 139° (SE) 3,842 14.1 -10.3°
Sets 07:51:02 0° 133° (SE) 4,504 14.9 -9.8°
